Toronto, Ontario

12:23 AM EST on November 19, 2017 (GMT -0500)
Toronto

Weather History for CYTZ - August, 2013

Change the Weather History Date:

Tuesday, August 27, 2013

  Actual Average Record
Temperature  
Mean Temperature 71 °F -  
Max Temperature 77 °F 69 °F 80 °F (2003)
Min Temperature 65 °F 56 °F 54 °F (2017)
Cooling Degree Days 6    
Growing Degree Days 21 (Base 50)    
Moisture  
Dew Point 68 °F    
Average Humidity 91    
Maximum Humidity 100    
Minimum Humidity 78    
Precipitation  
Precipitation 0.43 in 0.10 in - ()
Sea Level Pressure  
Sea Level Pressure 29.90 in    
Wind  
Wind Speed 4 mph ()    
Max Wind Speed 16 mph    
Max Gust Speed 20 mph    
Visibility 3.1 miles    
Events Fog , Rain , Thunderstorm    
Averages and records for this station are not official NWS values.
T = Trace of Precipitation, MM = Missing Value Source: Averaged Metar Reports

Daily Weather History Graph

Daily Weather History Graph

Search for Another Location

Airport or City:

Trip Planner

Search our weather history database for the weather conditions in past years. The results will help you decide how hot, cold, wet, or windy it might be!

Date:

Astronomy

Aug. 27, 2013 Rise Set
Actual Time 6:35 AM EDT 8:01 PM EDT
Civil Twilight 6:06 AM EDT 8:31 PM EDT
Nautical Twilight 5:29 AM EDT 9:07 PM EDT
Astronomical Twilight 4:51 AM EDT 9:45 PM EDT
Moon 11:39 PM EDT (8/27) 1:46 PM EDT (8/27)
Length of Visible Light 14h 25m
Length of Day
13h 25m
Waning Gibbous, 57% of the Moon is Illuminated
Aug 27
Waning Gibbous
Aug 28
Last Quarter
Sep 5
New
Sep 12
First Quarter
Sep 19
Full

Hourly Weather History & Observations

Time (EDT) Temp. Dew Point Humidity Pressure Visibility Wind Dir Wind Speed Gust Speed Precip Events Conditions
12:00 AM 68.0 °F 66.2 °F 94% 29.93 in 1.8 mi SSW 4.6 mph - N/A   Clear
1:00 AM 68.0 °F 66.2 °F 94% 29.94 in 1.2 mi Calm Calm - N/A   Clear
1:17 AM 66.2 °F 64.4 °F 94% 29.94 in 0.8 mi South 2.3 mph - N/A   Clear
1:35 AM 68.0 °F 66.2 °F 94% 29.94 in 1.0 mi Variable 2.3 mph - N/A   Clear
1:41 AM 66.2 °F 64.4 °F 94% 29.94 in 0.8 mi Calm Calm - N/A   Clear
1:54 AM 66.2 °F 64.4 °F 94% 29.93 in 0.4 mi SSW 3.5 mph - N/A Fog Fog
2:00 AM 67 °F 66 °F 94% 29.93 in 1 mi SSW 3.5 mph - -   Mist
2:00 AM 68.0 °F 66.2 °F 94% 29.93 in 0.6 mi SW 3.5 mph - N/A   Partly Cloudy
2:32 AM 68.0 °F 66.2 °F 94% 29.92 in 1.0 mi West 3.5 mph - N/A   Partly Cloudy
2:38 AM 66.2 °F 64.4 °F 94% 29.92 in 0.8 mi WSW 2.3 mph - N/A   Partly Cloudy
2:52 AM 66.2 °F 66.2 °F 100% 29.91 in 1.0 mi SW 4.6 mph - N/A   Clear
3:00 AM 68.0 °F 66.2 °F 94% 29.92 in 1.2 mi West 4.6 mph - N/A   Clear
3:47 AM 66.2 °F 66.2 °F 100% 29.91 in 0.8 mi SW 2.3 mph - N/A   Clear
3:51 AM 66.2 °F 64.4 °F 94% 29.91 in 0.5 mi SSW 2.3 mph - N/A Fog Fog
4:00 AM 66.2 °F 64.4 °F 94% 29.91 in 0.2 mi South 2.3 mph - N/A Fog Fog
4:02 AM 66.2 °F 64.4 °F 94% 29.91 in 0.2 mi SSE 2.3 mph - N/A Fog Fog
4:21 AM 66.2 °F 64.4 °F 94% 29.91 in 0.5 mi SSW 2.3 mph - N/A Fog Fog
4:31 AM 66.2 °F 64.4 °F 94% 29.91 in 1.0 mi SW 2.3 mph - N/A   Partly Cloudy
5:00 AM 66.2 °F 64.4 °F 94% 29.91 in 1.8 mi SW 4.6 mph - N/A   Clear
5:50 AM 68.0 °F 66.2 °F 94% 29.93 in 2.0 mi West 4.6 mph - N/A   Clear
6:00 AM 66.2 °F 66.2 °F 100% 29.92 in 2.5 mi WSW 3.5 mph - N/A   Clear
6:04 AM 66.2 °F 66.2 °F 100% 29.93 in 1.8 mi SW 3.5 mph - N/A   Clear
6:27 AM 68.0 °F 66.2 °F 94% 29.91 in 0.8 mi Variable 2.3 mph - N/A   Clear
6:44 AM 66.2 °F 66.2 °F 100% 29.92 in 1.2 mi Calm Calm - N/A   Clear
6:54 AM 66.2 °F 66.2 °F 100% 29.92 in 0.8 mi WSW 3.5 mph - N/A   Clear
7:00 AM 66.2 °F 66.2 °F 100% 29.93 in 0.8 mi WSW 4.6 mph - N/A   Clear
7:03 AM 66.2 °F 66.2 °F 100% 29.93 in 1.0 mi SW 4.6 mph - N/A   Clear
7:42 AM 68.0 °F 66.2 °F 94% 29.93 in 2.0 mi West 3.5 mph - N/A   Clear
8:00 AM 68 °F 67 °F 95% 29.93 in 2 mi West 1.2 mph - -   Mist
8:00 AM 68.0 °F 66.2 °F 94% 29.93 in 2.5 mi Calm Calm - N/A   Clear
8:13 AM 69.8 °F 68.0 °F 94% 29.93 in 3.0 mi Calm Calm - N/A   Clear
9:00 AM 73.4 °F 68.0 °F 83% 29.94 in 4.0 mi Calm Calm - N/A   Haze
10:00 AM 75.2 °F 68.0 °F 78% 29.92 in 5.0 mi East 5.8 mph - N/A   Haze
10:02 AM 75.2 °F 68.0 °F 78% 29.92 in 6.0 mi East 6.9 mph - N/A   Haze
11:00 AM 77.0 °F 69.8 °F 78% 29.93 in 9.0 mi South 4.6 mph - N/A   Clear
11:50 AM 75.2 °F 69.8 °F 83% 29.93 in 5.0 mi SSW 8.1 mph - N/A   Haze
12:00 PM 73.4 °F 69.8 °F 88% 29.93 in 4.0 mi SSW 8.1 mph - N/A   Haze
1:00 PM 75.2 °F 69.8 °F 83% 29.91 in 4.0 mi South 5.8 mph - N/A   Haze
2:00 PM 74 °F 69 °F 80% 29.91 in 4 mi ENE 5.8 mph - -   Light Haze
2:00 PM 73.4 °F 69.8 °F 88% 29.91 in 4.0 mi ENE 5.8 mph - N/A   Haze
3:00 PM 77.0 °F 69.8 °F 78% 29.89 in 5.0 mi East 5.8 mph - N/A   Haze
3:13 PM 77.0 °F 69.8 °F 78% 29.88 in 6.0 mi East 6.9 mph - N/A   Haze
3:27 PM 75.2 °F 68.0 °F 78% 29.88 in 4.0 mi East 4.6 mph - N/A   Haze
3:37 PM 77.0 °F 69.8 °F 78% 29.87 in 7.0 mi ENE 8.1 mph - N/A   Overcast
3:43 PM 75.2 °F 69.8 °F 83% 29.87 in 5.0 mi ENE 8.1 mph - N/A   Haze
4:00 PM 75.2 °F 69.8 °F 83% 29.87 in 5.0 mi East 9.2 mph - N/A   Haze
4:11 PM 75.2 °F 68.0 °F 78% 29.87 in 6.0 mi East 9.2 mph - N/A   Haze
5:00 PM 75.2 °F 69.8 °F 83% 29.86 in 7.0 mi East 9.2 mph - N/A   Mostly Cloudy
6:00 PM 75.2 °F 68.0 °F 78% 29.86 in 8.0 mi East 8.1 mph - N/A   Mostly Cloudy
6:43 PM 73.4 °F 69.8 °F 88% 29.86 in 6.0 mi East 10.4 mph - N/A Rain Light Rain
6:44 PM 73.4 °F 69.8 °F 88% 29.86 in 5.0 mi East 10.4 mph - N/A Rain Light Rain
6:54 PM 71.6 °F 69.8 °F 94% 29.87 in 2.5 mi ENE 8.1 mph - N/A Rain Light Rain
6:56 PM 71.6 °F 69.8 °F 94% 29.88 in 2.5 mi NE 6.9 mph - N/A Rain , Thunderstorm Thunderstorms and Rain
7:00 PM 73.4 °F 68.0 °F 83% 29.89 in 2.5 mi Variable 16.1 mph - N/A Rain , Thunderstorm Thunderstorms and Rain
7:04 PM 71.6 °F 68.0 °F 88% 29.89 in 2.5 mi West 13.8 mph 19.6 mph N/A Rain , Thunderstorm Heavy Thunderstorms and Rain
7:05 PM 71.6 °F 69.8 °F 94% 29.89 in 2.5 mi WNW 11.5 mph 19.6 mph N/A Rain , Thunderstorm Heavy Thunderstorms and Rain
7:07 PM 71.6 °F 69.8 °F 94% 29.88 in 2.2 mi NNW 9.2 mph 19.6 mph N/A Rain , Thunderstorm Heavy Thunderstorms and Rain
7:08 PM 71.6 °F 69.8 °F 94% 29.88 in 1.8 mi North 8.1 mph 19.6 mph N/A Rain , Thunderstorm Heavy Thunderstorms and Rain
7:13 PM 71.6 °F 69.8 °F 94% 29.87 in 1.5 mi North 5.8 mph 18.4 mph N/A Rain , Thunderstorm Thunderstorms and Rain
7:19 PM 73.4 °F 69.8 °F 88% 29.87 in 2.0 mi Variable 2.3 mph - N/A Rain , Thunderstorm Thunderstorms and Rain
7:24 PM 73.4 °F 69.8 °F 88% 29.87 in 1.8 mi Variable 3.5 mph - N/A Rain , Thunderstorm Thunderstorms and Rain
7:27 PM 73.4 °F 69.8 °F 88% 29.86 in 2.0 mi Variable 3.5 mph - N/A Rain , Thunderstorm Light Thunderstorms and Rain
7:29 PM 71.6 °F 69.8 °F 94% 29.86 in 2.5 mi Variable 5.8 mph - N/A Rain Light Rain
7:31 PM 71.6 °F 69.8 °F 94% 29.86 in 3.0 mi East 6.9 mph - N/A Rain Light Rain
7:34 PM 71.6 °F 69.8 °F 94% 29.86 in 8.0 mi East 6.9 mph - N/A Rain Light Rain
7:40 PM 71.6 °F 69.8 °F 94% 29.86 in 9.0 mi SSE 6.9 mph - N/A   Overcast
7:45 PM 71.6 °F 69.8 °F 94% 29.87 in 5.0 mi SE 5.8 mph - N/A   Overcast
8:00 PM 71 °F 69 °F 92% 29.87 in 4 mi ENE 10.4 mph - -   Mist
8:00 PM 71.6 °F 69.8 °F 94% 29.87 in 4.0 mi ENE 11.5 mph - N/A   Overcast
8:45 PM 71.6 °F 69.8 °F 94% 29.88 in 6.0 mi ENE 5.8 mph - N/A   Overcast
8:46 PM 71.6 °F 69.8 °F 94% 29.88 in 6.0 mi ENE 4.6 mph - N/A   Overcast
9:00 PM 73.4 °F 69.8 °F 88% 29.88 in 6.0 mi East 5.8 mph - N/A   Overcast
9:15 PM 73.4 °F 69.8 °F 88% 29.88 in 6.0 mi ENE 9.2 mph - N/A   Overcast
9:59 PM 73.4 °F 69.8 °F 88% 29.89 in 9.0 mi Calm Calm - N/A Rain Light Rain
10:00 PM 73.4 °F 69.8 °F 88% 29.89 in 9.0 mi Variable 3.5 mph - N/A Rain Light Rain
10:03 PM 73.4 °F 69.8 °F 88% 29.89 in 5.0 mi Variable 10.4 mph - N/A Rain Light Rain
10:08 PM 71.6 °F 69.8 °F 94% 29.89 in 2.5 mi SW 6.9 mph - N/A Rain Light Rain
10:13 PM 71.6 °F 69.8 °F 94% 29.89 in 1.8 mi SW 6.9 mph - N/A Rain Light Rain
10:28 PM 71.6 °F 68.0 °F 88% 29.90 in 1.5 mi WSW 13.8 mph - N/A Rain Light Rain
10:35 PM 71.6 °F 69.8 °F 94% 29.90 in 1.8 mi WSW 12.7 mph - N/A Rain Light Rain
10:37 PM 71.6 °F 69.8 °F 94% 29.90 in 2.0 mi WSW 11.5 mph - N/A Rain Light Rain
10:41 PM 71.6 °F 69.8 °F 94% 29.90 in 2.2 mi WSW 11.5 mph - N/A Rain Light Rain
10:46 PM 71.6 °F 69.8 °F 94% 29.90 in 1.8 mi WSW 6.9 mph - N/A Rain Light Rain
10:58 PM 71.6 °F 69.8 °F 94% 29.90 in 1.2 mi SSW 3.5 mph - N/A Rain Light Rain
11:00 PM 71.6 °F 69.8 °F 94% 29.90 in 1.2 mi South 4.6 mph - N/A Rain Light Rain
11:15 PM 71.6 °F 69.8 °F 94% 29.89 in 1.8 mi South 3.5 mph - N/A Rain Light Rain
11:19 PM 71.6 °F 69.8 °F 94% 29.89 in 1.8 mi Calm Calm - N/A Rain Light Rain
11:21 PM 71.6 °F 69.8 °F 94% 29.89 in 2.0 mi Calm Calm - N/A Rain Light Rain
11:34 PM 71.6 °F 69.8 °F 94% 29.88 in 1.8 mi Variable 2.3 mph - N/A Rain Light Rain
11:57 PM 71.6 °F 69.8 °F 94% 29.88 in 1.2 mi ESE 4.6 mph - N/A Rain Light Rain